Time,TemperatureF,DewpointF,PressureIn,WindDirection,WindDirectionDegrees,WindSpeedMPH,WindSpeedGustMPH,Humidity,HourlyPrecipIn,Conditions,Clouds,dailyrainin,SoftwareType,DateUTC
2013-04-19 00:00:00,30.5,29.2,29.41,NNW,338,2.0,6.0,95,0.00,,SKC,0.12,VWS V14.01,2013-04-19 05:00:00,
2013-04-19 00:03:00,30.5,29.2,29.42,NNW,338,4.0,5.0,95,0.00,,SKC,0.12,VWS V14.01,2013-04-19 05:03:00,
2013-04-19 00:08:00,30.5,29.2,29.41,NNW,338,4.0,5.0,95,0.00,,SKC,0.00,VWS V14.01,2013-04-19 05:08:00,
2013-04-19 00:13:00,30.5,29.2,29.41,NNW,338,2.0,5.0,95,0.00,,SKC,0.00,VWS V14.01,2013-04-19 05:13:00,
2013-04-19 00:18:00,30.5,29.2,29.41,NNW,338,4.0,6.0,95,0.00,,SKC,0.00,VWS V14.01,2013-04-19 05:18:00,
2013-04-19 00:23:00,30.5,29.2,29.41,NNW,338,2.0,7.0,95,0.00,,SKC,0.00,VWS V14.01,2013-04-19 05:23:00,
2013-04-19 00:28:00,30.5,29.2,29.41,NNW,338,2.0,7.0,95,0.00,,SKC,0.00,VWS V14.01,2013-04-19 05:28:00,
2013-04-19 00:30:00,30.5,29.2,29.41,NNW,338,4.0,7.0,95,0.00,,SKC,0.00,VWS V14.01,2013-04-19 05:30:00,
2013-04-19 00:33:00,30.5,29.2,29.41,NNW,338,5.0,7.0,95,0.00,,SKC,0.00,VWS V14.01,2013-04-19 05:33:00,
2013-04-19 00:38:00,30.5,29.2,29.41,NNW,338,4.0,5.0,95,0.00,,SKC,0.00,VWS V14.01,2013-04-19 05:38:00,
2013-04-19 00:43:00,30.5,29.2,29.41,NNW,338,4.0,6.0,95,0.00,,SKC,0.00,VWS V14.01,2013-04-19 05:43:00,
2013-04-19 00:48:00,30.5,29.2,29.41,NNW,338,6.0,7.0,95,0.00,,SKC,0.00,VWS V14.01,2013-04-19 05:48:00,
2013-04-19 00:53:00,30.6,29.3,29.41,NNW,338,4.0,7.0,95,0.00,,SKC,0.00,VWS V14.01,2013-04-19 05:53:00,
2013-04-19 00:58:00,30.6,29.3,29.40,NNW,338,4.0,7.0,95,0.00,,SKC,0.00,VWS V14.01,2013-04-19 05:58:00,
2013-04-19 01:00:00,30.5,29.2,29.40,NNW,338,4.0,8.0,95,0.00,,SKC,0.00,VWS V14.01,2013-04-19 06:00:00,
2013-04-19 01:03:00,30.5,29.2,29.41,NNW,338,4.0,8.0,95,0.00,,SKC,0.00,VWS V14.01,2013-04-19 06:03:00,
2013-04-19 01:08:00,30.5,29.2,29.40,NNW,338,5.0,6.0,95,0.00,,SKC,0.00,VWS V14.01,2013-04-19 06:08:00,
2013-04-19 01:13:00,30.5,29.2,29.40,NNW,338,5.0,8.0,95,0.00,,SKC,0.00,VWS V14.01,2013-04-19 06:13:00,
2013-04-19 01:18:00,30.5,29.2,29.40,NNW,338,5.0,8.0,95,0.00,,SKC,0.00,VWS V14.01,2013-04-19 06:18:00,
2013-04-19 01:23:00,30.5,29.2,29.40,NNW,338,6.0,8.0,95,0.00,,SKC,0.00,VWS V14.01,2013-04-19 06:23:00,
2013-04-19 01:28:00,30.5,29.2,29.41,NNW,338,4.0,8.0,95,0.00,,SKC,0.00,VWS V14.01,2013-04-19 06:28:00,
2013-04-19 01:30:00,30.5,29.2,29.40,NNW,338,2.0,8.0,95,0.00,,SKC,0.00,VWS V14.01,2013-04-19 06:30:00,
2013-04-19 01:33:00,30.5,29.2,29.40,NNW,338,4.0,8.0,95,0.00,,SKC,0.00,VWS V14.01,2013-04-19 06:33:00,
2013-04-19 01:38:00,30.5,29.2,29.40,NNW,338,2.0,4.0,95,0.00,,SKC,0.00,VWS V14.01,2013-04-19 06:38:00,
2013-04-19 01:44:00,30.4,29.1,29.40,NNW,338,4.0,6.0,95,0.00,,SKC,0.00,VWS V14.01,2013-04-19 06:44:00,
2013-04-19 01:49:00,30.4,29.1,29.40,NNW,338,6.0,6.0,95,0.00,,SKC,0.00,VWS V14.01,2013-04-19 06:49:00,
2013-04-19 01:54:00,30.4,29.1,29.40,NNW,338,4.0,6.0,95,0.00,,SKC,0.00,VWS V14.01,2013-04-19 06:54:00,
2013-04-19 01:59:00,30.3,29.3,29.40,NNW,338,3.0,6.0,96,0.00,,SKC,0.00,VWS V14.01,2013-04-19 06:59:00,
2013-04-19 02:00:00,30.3,29.3,29.39,NNW,338,2.0,6.0,96,0.00,,SKC,0.00,VWS V14.01,2013-04-19 07:00:00,
2013-04-19 02:04:00,30.3,29.3,29.40,NNW,338,6.0,6.0,96,0.00,,SKC,0.00,VWS V14.01,2013-04-19 07:04:00,
2013-04-19 02:09:00,30.3,29.3,29.39,NNW,338,4.0,7.0,96,0.00,,SKC,0.00,VWS V14.01,2013-04-19 07:09:00,
2013-04-19 02:14:00,30.2,28.9,29.39,NNW,338,2.0,7.0,95,0.00,,SKC,0.00,VWS V14.01,2013-04-19 07:14:00,
2013-04-19 02:19:00,30.2,28.9,29.39,NNW,338,4.0,9.0,95,0.00,,SKC,0.00,VWS V14.01,2013-04-19 07:19:00,
2013-04-19 02:24:00,30.1,28.8,29.39,NNW,338,7.0,9.0,95,0.00,,SKC,0.00,VWS V14.01,2013-04-19 07:24:00,
2013-04-19 02:29:00,30.1,28.8,29.39,NNW,338,4.0,9.0,95,0.00,,SKC,0.00,VWS V14.01,2013-04-19 07:29:00,
2013-04-19 02:30:00,30.1,28.8,29.39,NNW,338,5.0,9.0,95,0.00,,SKC,0.00,VWS V14.01,2013-04-19 07:30:00,
2013-04-19 02:34:00,30.1,28.8,29.39,NNW,338,4.0,9.0,95,0.00,,SKC,0.00,VWS V14.01,2013-04-19 07:34:00,
2013-04-19 02:39:00,30.0,28.7,29.39,NNW,338,3.0,6.0,95,0.00,,SKC,0.00,VWS V14.01,2013-04-19 07:39:00,
2013-04-19 02:44:00,30.0,28.7,29.39,NNW,338,4.0,7.0,95,0.00,,SKC,0.00,VWS V14.01,2013-04-19 07:44:00,
2013-04-19 02:49:00,29.9,28.9,29.39,NNW,338,4.0,7.0,96,0.00,,SKC,0.00,VWS V14.01,2013-04-19 07:49:00,
2013-04-19 02:54:00,29.8,28.8,29.39,NNW,338,2.0,7.0,96,0.00,,SKC,0.00,VWS V14.01,2013-04-19 07:54:00,
2013-04-19 02:59:00,29.8,28.8,29.39,NNW,338,5.0,7.0,96,0.00,,SKC,0.00,VWS V14.01,2013-04-19 07:59:00,
2013-04-19 03:00:00,29.7,28.7,29.39,NNW,338,7.0,8.0,96,0.00,,SKC,0.00,VWS V14.01,2013-04-19 08:00:00,
2013-04-19 03:04:00,29.7,28.7,29.39,NNW,338,5.0,7.0,96,0.00,,SKC,0.00,VWS V14.01,2013-04-19 08:04:00,
2013-04-19 03:09:00,29.7,28.7,29.39,NNW,338,5.0,8.0,96,0.00,,SKC,0.00,VWS V14.01,2013-04-19 08:09:00,
2013-04-19 03:14:00,29.6,28.6,29.40,NNW,338,5.0,8.0,96,0.00,,SKC,0.00,VWS V14.01,2013-04-19 08:14:00,
2013-04-19 03:19:00,29.6,28.4,29.40,NNW,338,3.0,8.0,95,0.00,,SKC,0.00,VWS V14.01,2013-04-19 08:19:00,
2013-04-19 03:24:00,29.6,28.4,29.40,NNW,338,1.0,8.0,95,0.00,,SKC,0.00,VWS V14.01,2013-04-19 08:24:00,
2013-04-19 03:29:00,29.5,28.2,29.40,NNW,338,5.0,8.0,95,0.00,,SKC,0.00,VWS V14.01,2013-04-19 08:29:00,
2013-04-19 03:30:00,29.5,28.2,29.40,NNW,338,4.0,8.0,95,0.00,,SKC,0.00,VWS V14.01,2013-04-19 08:30:00,
2013-04-19 03:34:00,29.5,28.2,29.40,NNW,338,5.0,8.0,95,0.00,,SKC,0.00,VWS V14.01,2013-04-19 08:34:00,
2013-04-19 03:39:00,29.5,28.2,29.40,NNW,338,4.0,5.0,95,0.00,,SKC,0.00,VWS V14.01,2013-04-19 08:39:00,
2013-04-19 03:44:00,29.5,28.2,29.40,NNW,338,4.0,7.0,95,0.00,,SKC,0.00,VWS V14.01,2013-04-19 08:44:00,
2013-04-19 03:49:00,29.5,28.2,29.41,NNW,338,6.0,7.0,95,0.00,,SKC,0.00,VWS V14.01,2013-04-19 08:49:00,
2013-04-19 03:54:00,29.4,28.1,29.41,NNW,338,4.0,8.0,95,0.00,,SKC,0.00,VWS V14.01,2013-04-19 08:54:00,
2013-04-19 03:59:00,29.4,28.1,29.40,NNW,338,6.0,8.0,95,0.00,,SKC,0.00,VWS V14.01,2013-04-19 08:59:00,
2013-04-19 04:00:00,29.5,28.2,29.41,NNW,338,4.0,8.0,95,0.00,,SKC,0.00,VWS V14.01,2013-04-19 09:00:00,
2013-04-19 04:04:00,29.5,28.2,29.41,NNW,338,8.0,8.0,95,0.00,,SKC,0.00,VWS V14.01,2013-04-19 09:04:00,
2013-04-19 04:09:00,29.4,28.1,29.41,NNW,338,4.0,9.0,95,0.00,,SKC,0.00,VWS V14.01,2013-04-19 09:09:00,
2013-04-19 04:14:00,29.3,28.0,29.41,NNW,338,4.0,9.0,95,0.00,,SKC,0.00,VWS V14.01,2013-04-19 09:14:00,
2013-04-19 04:19:00,29.3,28.3,29.41,NNW,338,5.0,9.0,96,0.00,,SKC,0.00,VWS V14.01,2013-04-19 09:19:00,
2013-04-19 04:24:00,29.3,28.3,29.41,NNW,338,3.0,9.0,96,0.00,,SKC,0.00,VWS V14.01,2013-04-19 09:24:00,
2013-04-19 04:29:00,29.2,28.0,29.41,NNW,338,4.0,9.0,95,0.00,,SKC,0.00,VWS V14.01,2013-04-19 09:29:00,
2013-04-19 04:30:00,29.2,28.0,29.41,NNW,338,5.0,9.0,95,0.00,,SKC,0.00,VWS V14.01,2013-04-19 09:30:00,
2013-04-19 04:34:00,29.2,28.0,29.41,NNW,338,6.0,9.0,95,0.00,,SKC,0.00,VWS V14.01,2013-04-19 09:34:00,
2013-04-19 04:39:00,29.1,27.9,29.41,NNW,338,3.0,8.0,95,0.00,,SKC,0.00,VWS V14.01,2013-04-19 09:39:00,
2013-04-19 04:44:00,29.0,27.8,29.41,NNW,338,5.0,8.0,95,0.00,,SKC,0.00,VWS V14.01,2013-04-19 09:44:00,
2013-04-19 04:50:00,29.0,27.8,29.41,NNW,338,4.0,8.0,95,0.00,,SKC,0.00,VWS V14.01,2013-04-19 09:50:00,
2013-04-19 04:55:00,28.9,27.6,29.41,NNW,338,5.0,8.0,95,0.00,,SKC,0.00,VWS V14.01,2013-04-19 09:55:00,
2013-04-19 05:00:00,28.9,27.6,29.41,NNW,338,5.0,8.0,95,0.00,,SKC,0.00,VWS V14.01,2013-04-19 10:00:00,
2013-04-19 05:05:00,28.8,27.5,29.42,NNW,338,5.0,8.0,95,0.00,,SKC,0.00,VWS V14.01,2013-04-19 10:05:00,
2013-04-19 05:10:00,28.8,27.5,29.42,NNW,338,3.0,6.0,95,0.00,,SKC,0.00,VWS V14.01,2013-04-19 10:10:00,
2013-04-19 05:15:00,28.8,27.5,29.42,NNW,338,5.0,6.0,95,0.00,,SKC,0.00,VWS V14.01,2013-04-19 10:15:00,
2013-04-19 05:20:00,28.7,27.5,29.42,NNW,338,4.0,7.0,95,0.00,,SKC,0.00,VWS V14.01,2013-04-19 10:20:00,
2013-04-19 05:25:00,28.6,27.4,29.42,NNW,338,6.0,9.0,95,0.00,,SKC,0.00,VWS V14.01,2013-04-19 10:25:00,
2013-04-19 05:30:00,28.7,27.5,29.42,NNW,338,6.0,9.0,95,0.00,,SKC,0.00,VWS V14.01,2013-04-19 10:30:00,
2013-04-19 05:35:00,28.6,27.4,29.42,NNW,338,4.0,9.0,95,0.00,,SKC,0.00,VWS V14.01,2013-04-19 10:35:00,
2013-04-19 05:40:00,28.4,27.1,29.42,NNW,338,3.0,7.0,95,0.00,,SKC,0.00,VWS V14.01,2013-04-19 10:40:00,
2013-04-19 05:45:00,28.3,27.0,29.43,NNW,338,5.0,7.0,95,0.00,,SKC,0.00,VWS V14.01,2013-04-19 10:45:00,
2013-04-19 05:50:00,28.2,27.0,29.43,NNW,338,5.0,8.0,95,0.00,,SKC,0.00,VWS V14.01,2013-04-19 10:50:00,
2013-04-19 05:55:00,28.1,26.9,29.43,NNW,338,7.0,8.0,95,0.00,,SKC,0.00,VWS V14.01,2013-04-19 10:55:00,
2013-04-19 06:00:00,28.0,26.8,29.43,NNW,338,5.0,9.0,95,0.00,,SKC,0.00,VWS V14.01,2013-04-19 11:00:00,
2013-04-19 06:05:00,27.9,26.7,29.44,NNW,338,5.0,9.0,95,0.00,,SKC,0.00,VWS V14.01,2013-04-19 11:05:00,
2013-04-19 06:10:00,27.8,26.6,29.44,NNW,338,5.0,8.0,95,0.00,,SKC,0.00,VWS V14.01,2013-04-19 11:10:00,
2013-04-19 06:15:00,27.7,26.5,29.44,NNW,338,5.0,8.0,95,0.00,,SKC,0.00,VWS V14.01,2013-04-19 11:15:00,
2013-04-19 06:20:00,27.7,26.5,29.44,NNW,338,6.0,8.0,95,0.00,,SKC,0.00,VWS V14.01,2013-04-19 11:20:00,
2013-04-19 06:25:00,27.7,26.5,29.44,NNW,338,6.0,8.0,95,0.00,,SKC,0.00,VWS V14.01,2013-04-19 11:25:00,
2013-04-19 06:30:00,27.8,26.6,29.45,NNW,338,4.0,10.0,95,0.00,,SKC,0.00,VWS V14.01,2013-04-19 11:30:00,
2013-04-19 06:35:00,27.8,26.6,29.45,NNW,338,5.0,10.0,95,0.00,,SKC,0.00,VWS V14.01,2013-04-19 11:35:00,
2013-04-19 06:40:00,27.8,26.6,29.45,NNW,338,2.0,6.0,95,0.00,,SKC,0.00,VWS V14.01,2013-04-19 11:40:00,
2013-04-19 06:45:00,27.8,26.6,29.45,NNW,338,4.0,7.0,95,0.00,,SKC,0.00,VWS V14.01,2013-04-19 11:45:00,
2013-04-19 06:50:00,27.9,26.7,29.45,NNW,338,6.0,7.0,95,0.00,,SKC,0.00,VWS V14.01,2013-04-19 11:50:00,
2013-04-19 06:55:00,27.8,26.6,29.45,NNW,338,5.0,8.0,95,0.00,,SKC,0.00,VWS V14.01,2013-04-19 11:55:00,
2013-04-19 07:00:00,27.7,26.5,29.46,NNW,338,6.0,8.0,95,0.00,,SKC,0.00,VWS V14.01,2013-04-19 12:00:00,
2013-04-19 07:05:00,27.7,26.5,29.46,NNW,338,5.0,8.0,95,0.00,,SKC,0.00,VWS V14.01,2013-04-19 12:05:00,
2013-04-19 07:10:00,27.7,26.5,29.46,NNW,338,6.0,7.0,95,0.00,,SKC,0.00,VWS V14.01,2013-04-19 12:10:00,
2013-04-19 07:15:00,27.7,26.5,29.46,NNW,338,4.0,7.0,95,0.00,,SKC,0.00,VWS V14.01,2013-04-19 12:15:00,
2013-04-19 07:20:00,27.8,26.6,29.46,NNW,338,6.0,7.0,95,0.00,,SKC,0.00,VWS V14.01,2013-04-19 12:20:00,
2013-04-19 07:26:00,27.7,26.5,29.47,NNW,338,7.0,9.0,95,0.00,,SKC,0.00,VWS V14.01,2013-04-19 12:26:00,
2013-04-19 07:30:00,27.7,26.5,29.47,NNW,338,4.0,9.0,95,0.00,,SKC,0.00,VWS V14.01,2013-04-19 12:30:00,
2013-04-19 07:31:00,27.7,26.5,29.47,NNW,338,4.0,9.0,95,0.00,,SKC,0.00,VWS V14.01,2013-04-19 12:31:00,
2013-04-19 07:36:00,27.7,26.5,29.47,NNW,338,5.0,9.0,95,0.00,,SKC,0.00,VWS V14.01,2013-04-19 12:36:00,
2013-04-19 07:41:00,27.6,26.4,29.48,NNW,338,4.0,9.0,95,0.00,,SKC,0.00,VWS V14.01,2013-04-19 12:41:00,
2013-04-19 07:46:00,27.5,26.3,29.48,NNW,338,5.0,9.0,95,0.00,,SKC,0.00,VWS V14.01,2013-04-19 12:46:00,
2013-04-19 07:51:00,27.5,26.0,29.48,NNW,338,7.0,9.0,94,0.00,,SKC,0.00,VWS V14.01,2013-04-19 12:51:00,
2013-04-19 07:56:00,27.5,26.0,29.48,NNW,338,5.0,9.0,94,0.00,,SKC,0.00,VWS V14.01,2013-04-19 12:56:00,
2013-04-19 08:00:00,27.6,26.1,29.48,NNW,338,4.0,9.0,94,0.00,,SKC,0.00,VWS V14.01,2013-04-19 13:00:00,
2013-04-19 08:01:00,27.5,26.0,29.48,NNW,338,6.0,9.0,94,0.00,,SKC,0.00,VWS V14.01,2013-04-19 13:01:00,
2013-04-19 08:06:00,27.6,26.1,29.48,NNW,338,5.0,5.0,94,0.00,,SKC,0.00,VWS V14.01,2013-04-19 13:06:00,
2013-04-19 08:11:00,27.7,26.2,29.48,NNW,338,5.0,9.0,94,0.00,,SKC,0.00,VWS V14.01,2013-04-19 13:11:00,
2013-04-19 08:16:00,27.7,26.2,29.48,NNW,338,5.0,9.0,94,0.00,,SKC,0.00,VWS V14.01,2013-04-19 13:16:00,
2013-04-19 08:21:00,27.7,26.2,29.48,NNW,338,8.0,9.0,94,0.00,,SKC,0.00,VWS V14.01,2013-04-19 13:21:00,
2013-04-19 08:26:00,27.6,26.1,29.48,NNW,338,7.0,9.0,94,0.00,,SKC,0.00,VWS V14.01,2013-04-19 13:26:00,
2013-04-19 08:30:00,27.7,26.2,29.48,NNW,338,5.0,9.0,94,0.00,,SKC,0.00,VWS V14.01,2013-04-19 13:30:00,
2013-04-19 08:31:00,27.6,26.1,29.48,NNW,338,6.0,9.0,94,0.00,,SKC,0.00,VWS V14.01,2013-04-19 13:31:00,
2013-04-19 08:36:00,27.7,26.2,29.48,NNW,338,6.0,8.0,94,0.00,,SKC,0.00,VWS V14.01,2013-04-19 13:36:00,
2013-04-19 08:41:00,27.8,26.3,29.49,NNW,338,8.0,11.0,94,0.00,,SKC,0.00,VWS V14.01,2013-04-19 13:41:00,
2013-04-19 08:46:00,27.8,26.0,29.49,NNW,338,8.0,11.0,93,0.00,,SKC,0.00,VWS V14.01,2013-04-19 13:46:00,
2013-04-19 08:51:00,27.8,26.0,29.49,NNW,338,4.0,11.0,93,0.00,,SKC,0.00,VWS V14.01,2013-04-19 13:51:00,
2013-04-19 08:56:00,28.1,26.1,29.49,NNW,338,7.0,11.0,92,0.00,,SKC,0.00,VWS V14.01,2013-04-19 13:56:00,
2013-04-19 09:00:00,28.2,26.2,29.49,NNW,338,4.0,11.0,92,0.00,,SKC,0.00,VWS V14.01,2013-04-19 14:00:00,
2013-04-19 09:01:00,28.3,26.3,29.49,NNW,338,6.0,11.0,92,0.00,,SKC,0.00,VWS V14.01,2013-04-19 14:01:00,
2013-04-19 09:06:00,28.2,25.9,29.49,NNW,338,6.0,6.0,91,0.00,,SKC,0.00,VWS V14.01,2013-04-19 14:06:00,
2013-04-19 09:11:00,28.2,25.9,29.50,NNW,338,6.0,10.0,91,0.00,,SKC,0.00,VWS V14.01,2013-04-19 14:11:00,
2013-04-19 09:16:00,28.3,26.0,29.50,NNW,338,4.0,13.0,91,0.00,,SKC,0.00,VWS V14.01,2013-04-19 14:16:00,
2013-04-19 09:21:00,28.4,26.1,29.50,NNW,337,8.0,13.0,91,0.00,,SKC,0.00,VWS V14.01,2013-04-19 14:21:00,
2013-04-19 09:27:00,28.7,26.4,29.50,NNW,337,8.0,13.0,91,0.00,,SKC,0.00,VWS V14.01,2013-04-19 14:27:00,
2013-04-19 09:30:00,28.9,26.3,29.50,NW,322,4.0,13.0,90,0.00,,SKC,0.00,VWS V14.01,2013-04-19 14:30:00,
2013-04-19 09:32:00,28.9,26.6,29.50,NNW,337,8.0,13.0,91,0.00,,SKC,0.00,VWS V14.01,2013-04-19 14:32:00,
2013-04-19 09:37:00,29.0,26.4,29.51,NW,322,6.0,8.0,90,0.00,,SKC,0.00,VWS V14.01,2013-04-19 14:37:00,
2013-04-19 09:42:00,29.0,26.2,29.51,NNW,329,8.0,10.0,89,0.00,,SKC,0.00,VWS V14.01,2013-04-19 14:42:00,
2013-04-19 09:47:00,28.8,25.7,29.51,NW,321,5.0,10.0,88,0.00,,SKC,0.00,VWS V14.01,2013-04-19 14:47:00,
2013-04-19 09:52:00,28.8,25.7,29.51,NW,321,7.0,11.0,88,0.00,,SKC,0.00,VWS V14.01,2013-04-19 14:52:00,
2013-04-19 09:57:00,28.8,25.7,29.52,NW,315,8.0,11.0,88,0.00,,SKC,0.00,VWS V14.01,2013-04-19 14:57:00,
2013-04-19 10:00:00,28.8,25.4,29.52,NW,315,6.0,12.0,87,0.00,,SKC,0.00,VWS V14.01,2013-04-19 15:00:00,
2013-04-19 10:02:00,28.8,25.4,29.52,NW,315,8.0,12.0,87,0.00,,SKC,0.00,VWS V14.01,2013-04-19 15:02:00,
2013-04-19 10:07:00,28.9,25.5,29.52,NW,315,7.0,8.0,87,0.00,,SKC,0.00,VWS V14.01,2013-04-19 15:07:00,
2013-04-19 10:12:00,28.9,25.5,29.52,NNW,336,5.0,10.0,87,0.00,,SKC,0.00,VWS V14.01,2013-04-19 15:12:00,
2013-04-19 10:17:00,28.8,25.4,29.53,NNW,331,7.0,10.0,87,0.00,,SKC,0.00,VWS V14.01,2013-04-19 15:17:00,
2013-04-19 10:22:00,28.8,25.4,29.53,NW,319,5.0,10.0,87,0.00,,SKC,0.00,VWS V14.01,2013-04-19 15:22:00,
2013-04-19 10:27:00,28.9,25.5,29.53,NNW,329,4.0,10.0,87,0.00,,SKC,0.00,VWS V14.01,2013-04-19 15:27:00,
2013-04-19 10:30:00,29.4,26.0,29.53,NNW,327,5.0,11.0,87,0.00,,SKC,0.00,VWS V14.01,2013-04-19 15:30:00,
2013-04-19 10:32:00,29.1,25.7,29.53,NW,324,5.0,11.0,87,0.00,,SKC,0.00,VWS V14.01,2013-04-19 15:32:00,
2013-04-19 10:37:00,29.5,26.1,29.53,NW,317,5.0,5.0,87,0.00,,SKC,0.00,VWS V14.01,2013-04-19 15:37:00,
2013-04-19 10:42:00,29.7,26.3,29.54,NNW,332,9.0,11.0,87,0.00,,SKC,0.00,VWS V14.01,2013-04-19 15:42:00,
2013-04-19 10:47:00,29.8,26.1,29.54,NNW,327,5.0,11.0,86,0.00,,SKC,0.00,VWS V14.01,2013-04-19 15:47:00,
2013-04-19 10:52:00,29.9,26.5,29.54,NNW,331,7.0,11.0,87,0.00,,SKC,0.00,VWS V14.01,2013-04-19 15:52:00,
2013-04-19 10:57:00,30.0,26.6,29.54,NW,325,5.0,11.0,87,0.00,,SKC,0.00,VWS V14.01,2013-04-19 15:57:00,
2013-04-19 11:00:00,30.3,26.9,29.54,NW,321,8.0,11.0,87,0.00,,SKC,0.00,VWS V14.01,2013-04-19 16:00:00,
2013-04-19 11:02:00,30.3,27.2,29.54,NNW,331,9.0,11.0,88,0.00,,SKC,0.00,VWS V14.01,2013-04-19 16:02:00,
2013-04-19 11:07:00,30.3,26.9,29.55,NNW,337,5.0,9.0,87,0.00,,SKC,0.00,VWS V14.01,2013-04-19 16:07:00,
2013-04-19 11:12:00,30.4,27.0,29.54,NNW,328,5.0,11.0,87,0.00,,SKC,0.00,VWS V14.01,2013-04-19 16:12:00,
2013-04-19 11:17:00,30.6,27.2,29.55,NW,323,9.0,11.0,87,0.00,,SKC,0.00,VWS V14.01,2013-04-19 16:17:00,
2013-04-19 11:22:00,30.5,26.8,29.55,NW,321,10.0,11.0,86,0.00,,SKC,0.00,VWS V14.01,2013-04-19 16:22:00,
2013-04-19 11:27:00,30.3,26.9,29.55,NW,314,9.0,11.0,87,0.00,,SKC,0.00,VWS V14.01,2013-04-19 16:27:00,
2013-04-19 11:30:00,30.7,27.3,29.55,NW,321,10.0,11.0,87,0.00,,SKC,0.00,VWS V14.01,2013-04-19 16:30:00,
2013-04-19 11:32:00,30.5,27.1,29.55,NNW,327,5.0,11.0,87,0.00,,SKC,0.00,VWS V14.01,2013-04-19 16:32:00,
2013-04-19 11:37:00,30.7,27.6,29.55,NNW,333,6.0,11.0,88,0.00,,SKC,0.00,VWS V14.01,2013-04-19 16:37:00,
2013-04-19 11:42:00,30.8,27.4,29.55,NW,321,8.0,11.0,87,0.00,,SKC,0.00,VWS V14.01,2013-04-19 16:42:00,
2013-04-19 11:47:00,30.6,27.5,29.55,NW,311,8.0,11.0,88,0.00,,SKC,0.00,VWS V14.01,2013-04-19 16:47:00,
2013-04-19 11:52:00,30.2,27.1,29.56,NNW,327,8.0,14.0,88,0.00,,SKC,0.00,VWS V14.01,2013-04-19 16:52:00,
2013-04-19 11:57:00,30.2,27.1,29.56,NNW,337,7.0,14.0,88,0.00,,SKC,0.00,VWS V14.01,2013-04-19 16:57:00,
2013-04-19 12:00:00,31.5,28.1,29.56,NW,310,12.0,16.0,87,0.00,,SKC,0.00,VWS V14.01,2013-04-19 17:00:00,
2013-04-19 12:02:00,30.9,27.8,29.56,North,350,7.0,14.0,88,0.00,,SKC,0.00,VWS V14.01,2013-04-19 17:02:00,
2013-04-19 12:08:00,31.7,28.0,29.56,NNW,339,8.0,16.0,86,0.00,,SKC,0.00,VWS V14.01,2013-04-19 17:08:00,
2013-04-19 12:13:00,32.5,28.2,29.56,NNW,329,11.0,16.0,84,0.00,,SKC,0.00,VWS V14.01,2013-04-19 17:13:00,
2013-04-19 12:18:00,32.4,27.5,29.56,NW,321,10.0,16.0,82,0.00,,SKC,0.00,VWS V14.01,2013-04-19 17:18:00,
2013-04-19 12:23:00,31.9,27.3,29.57,NW,314,12.0,23.0,83,0.00,,SKC,0.00,VWS V14.01,2013-04-19 17:23:00,
2013-04-19 12:28:00,31.3,26.8,29.57,NNW,331,10.0,23.0,83,0.00,,SKC,0.00,VWS V14.01,2013-04-19 17:28:00,
2013-04-19 12:30:00,31.6,27.0,29.57,NNW,331,6.0,23.0,83,0.00,,SKC,0.00,VWS V14.01,2013-04-19 17:30:00,
2013-04-19 12:33:00,31.5,27.2,29.57,NNW,329,14.0,23.0,84,0.00,,SKC,0.00,VWS V14.01,2013-04-19 17:33:00,
2013-04-19 12:38:00,31.8,27.5,29.57,NNW,342,12.0,12.0,84,0.00,,SKC,0.00,VWS V14.01,2013-04-19 17:38:00,
2013-04-19 12:43:00,31.9,27.3,29.58,NW,324,11.0,14.0,83,0.00,,SKC,0.00,VWS V14.01,2013-04-19 17:43:00,
2013-04-19 12:48:00,32.3,27.4,29.58,NW,321,13.0,18.0,82,0.00,,SKC,0.00,VWS V14.01,2013-04-19 17:48:00,
2013-04-19 12:53:00,32.4,27.2,29.58,NW,321,8.0,18.0,81,0.00,,SKC,0.00,VWS V14.01,2013-04-19 17:53:00,
2013-04-19 12:58:00,32.7,27.5,29.58,North,355,10.0,18.0,81,0.00,,SKC,0.00,VWS V14.01,2013-04-19 17:58:00,
2013-04-19 13:00:00,33.4,27.6,29.58,NW,317,11.0,18.0,79,0.00,,SKC,0.00,VWS V14.01,2013-04-19 18:00:00,
2013-04-19 13:03:00,33.3,27.8,29.58,NW,323,10.0,18.0,80,0.00,,SKC,0.00,VWS V14.01,2013-04-19 18:03:00,
2013-04-19 13:08:00,33.3,27.5,29.58,NW,324,11.0,22.0,79,0.00,,SKC,0.00,VWS V14.01,2013-04-19 18:08:00,
2013-04-19 13:13:00,33.0,27.2,29.58,NW,317,12.0,22.0,79,0.00,,SKC,0.00,VWS V14.01,2013-04-19 18:13:00,
2013-04-19 13:18:00,32.5,26.4,29.59,NW,315,14.0,27.0,78,0.01,,SKC,0.01,VWS V14.01,2013-04-19 18:18:00,
2013-04-19 13:23:00,32.2,25.8,29.59,NNW,338,10.0,27.0,77,0.01,,SKC,0.01,VWS V14.01,2013-04-19 18:23:00,
2013-04-19 13:28:00,32.6,26.5,29.59,NNW,327,16.0,27.0,78,0.01,,SKC,0.01,VWS V14.01,2013-04-19 18:28:00,
2013-04-19 13:30:00,33.4,26.7,29.60,NW,306,9.0,27.0,76,0.01,,SKC,0.01,VWS V14.01,2013-04-19 18:30:00,
2013-04-19 13:33:00,33.3,26.9,29.60,NW,325,9.0,27.0,77,0.01,,SKC,0.01,VWS V14.01,2013-04-19 18:33:00,
2013-04-19 13:38:00,33.5,26.8,29.60,NW,306,11.0,19.0,76,0.01,,SKC,0.01,VWS V14.01,2013-04-19 18:38:00,
2013-04-19 13:43:00,33.3,26.2,29.61,NW,321,14.0,19.0,75,0.01,,SKC,0.01,VWS V14.01,2013-04-19 18:43:00,
2013-04-19 13:48:00,33.2,26.1,29.61,NW,310,10.0,20.0,75,0.01,,SKC,0.01,VWS V14.01,2013-04-19 18:48:00,
2013-04-19 13:53:00,33.3,25.9,29.61,NNW,337,8.0,20.0,74,0.01,,SKC,0.01,VWS V14.01,2013-04-19 18:53:00,
2013-04-19 13:58:00,33.4,25.7,29.61,NW,322,10.0,20.0,73,0.02,,SKC,0.02,VWS V14.01,2013-04-19 18:58:00,
2013-04-19 14:00:00,33.3,25.6,29.61,NW,309,6.0,20.0,73,0.02,,SKC,0.02,VWS V14.01,2013-04-19 19:00:00,
2013-04-19 14:03:00,33.4,25.7,29.61,NNW,338,12.0,20.0,73,0.02,,SKC,0.02,VWS V14.01,2013-04-19 19:03:00,
2013-04-19 14:08:00,33.4,26.0,29.61,NW,306,7.0,11.0,74,0.02,,SKC,0.02,VWS V14.01,2013-04-19 19:08:00,
2013-04-19 14:13:00,33.0,25.6,29.62,NW,321,13.0,20.0,74,0.03,,SKC,0.03,VWS V14.01,2013-04-19 19:13:00,
2013-04-19 14:18:00,33.1,26.0,29.62,NNW,330,13.0,20.0,75,0.03,,SKC,0.03,VWS V14.01,2013-04-19 19:18:00,
2013-04-19 14:23:00,33.7,26.3,29.62,NNW,342,12.0,20.0,74,0.03,,SKC,0.03,VWS V14.01,2013-04-19 19:23:00,
2013-04-19 14:29:00,34.1,26.4,29.62,NNW,335,11.0,20.0,73,0.03,,SKC,0.03,VWS V14.01,2013-04-19 19:29:00,
2013-04-19 14:30:00,34.4,26.7,29.62,NW,323,7.0,20.0,73,0.03,,SKC,0.03,VWS V14.01,2013-04-19 19:30:00,
2013-04-19 14:34:00,34.4,26.7,29.63,NNW,346,8.0,20.0,73,0.03,,SKC,0.03,VWS V14.01,2013-04-19 19:34:00,
2013-04-19 14:39:00,34.4,26.7,29.63,NW,318,10.0,14.0,73,0.02,,SKC,0.03,VWS V14.01,2013-04-19 19:39:00,
2013-04-19 14:44:00,34.4,26.0,29.63,NW,314,20.0,21.0,71,0.02,,SKC,0.03,VWS V14.01,2013-04-19 19:44:00,
2013-04-19 14:49:00,34.4,25.6,29.63,NW,321,14.0,21.0,70,0.02,,SKC,0.03,VWS V14.01,2013-04-19 19:49:00,
2013-04-19 14:54:00,34.4,25.6,29.64,NNW,327,12.0,22.0,70,0.03,,SKC,0.04,VWS V14.01,2013-04-19 19:54:00,
2013-04-19 14:59:00,34.5,25.7,29.64,North,355,9.0,22.0,70,0.03,,SKC,0.04,VWS V14.01,2013-04-19 19:59:00,
2013-04-19 15:00:00,35.0,26.2,29.64,NNW,329,11.0,22.0,70,0.03,,SKC,0.04,VWS V14.01,2013-04-19 20:00:00,
2013-04-19 15:04:00,34.9,25.8,29.64,NW,317,7.0,22.0,69,0.03,,SKC,0.04,VWS V14.01,2013-04-19 20:04:00,
2013-04-19 15:09:00,35.1,26.3,29.64,NW,318,22.0,22.0,70,0.03,,SKC,0.05,VWS V14.01,2013-04-19 20:09:00,
2013-04-19 15:14:00,35.1,26.0,29.64,NW,317,14.0,23.0,69,0.03,,SKC,0.05,VWS V14.01,2013-04-19 20:14:00,
2013-04-19 15:19:00,34.9,26.1,29.65,NW,321,14.0,23.0,70,0.03,,SKC,0.05,VWS V14.01,2013-04-19 20:19:00,
2013-04-19 15:24:00,34.8,26.4,29.65,NW,309,10.0,23.0,71,0.03,,SKC,0.05,VWS V14.01,2013-04-19 20:24:00,
2013-04-19 15:29:00,34.8,26.4,29.65,NNW,327,9.0,23.0,71,0.04,,SKC,0.06,VWS V14.01,2013-04-19 20:29:00,
2013-04-19 15:30:00,35.1,26.3,29.65,NW,310,13.0,23.0,70,0.04,,SKC,0.06,VWS V14.01,2013-04-19 20:30:00,
2013-04-19 15:34:00,35.0,26.2,29.65,NW,316,12.0,23.0,70,0.04,,SKC,0.06,VWS V14.01,2013-04-19 20:34:00,
2013-04-19 15:39:00,35.3,26.2,29.65,NW,306,9.0,18.0,69,0.04,,SKC,0.07,VWS V14.01,2013-04-19 20:39:00,
2013-04-19 15:44:00,35.2,26.1,29.66,NW,317,13.0,19.0,69,0.04,,SKC,0.07,VWS V14.01,2013-04-19 20:44:00,
2013-04-19 15:49:00,35.2,25.7,29.66,NW,316,12.0,19.0,68,0.04,,SKC,0.07,VWS V14.01,2013-04-19 20:49:00,
2013-04-19 15:54:00,35.3,26.5,29.66,NNW,334,7.0,19.0,70,0.05,,SKC,0.08,VWS V14.01,2013-04-19 20:54:00,
2013-04-19 15:59:00,35.3,25.8,29.67,NW,325,11.0,19.0,68,0.06,,SKC,0.09,VWS V14.01,2013-04-19 20:59:00,
2013-04-19 16:00:00,35.2,26.1,29.67,NW,317,14.0,19.0,69,0.06,,SKC,0.09,VWS V14.01,2013-04-19 21:00:00,
2013-04-19 16:04:00,35.3,26.5,29.67,NW,323,14.0,19.0,70,0.06,,SKC,0.09,VWS V14.01,2013-04-19 21:04:00,
2013-04-19 16:09:00,34.9,25.8,29.68,NNW,328,14.0,21.0,69,0.05,,SKC,0.09,VWS V14.01,2013-04-19 21:09:00,
2013-04-19 16:14:00,34.4,26.3,29.68,NW,319,10.0,22.0,72,0.07,,SKC,0.11,VWS V14.01,2013-04-19 21:14:00,
2013-04-19 16:19:00,34.4,26.0,29.68,NW,315,8.0,22.0,71,0.07,,SKC,0.11,VWS V14.01,2013-04-19 21:19:00,
2013-04-19 16:24:00,34.6,26.2,29.68,NW,315,10.0,22.0,71,0.07,,SKC,0.11,VWS V14.01,2013-04-19 21:24:00,
2013-04-19 16:29:00,35.0,25.9,29.68,NNW,335,15.0,22.0,69,0.07,,SKC,0.11,VWS V14.01,2013-04-19 21:29:00,
2013-04-19 16:30:00,34.9,26.1,29.69,NW,307,9.0,22.0,70,0.08,,SKC,0.12,VWS V14.01,2013-04-19 21:30:00,
2013-04-19 16:34:00,35.0,25.9,29.69,NW,315,9.0,22.0,69,0.08,,SKC,0.12,VWS V14.01,2013-04-19 21:34:00,
2013-04-19 16:39:00,34.5,25.7,29.70,NNW,329,10.0,22.0,70,0.07,,SKC,0.13,VWS V14.01,2013-04-19 21:39:00,
2013-04-19 16:44:00,34.4,25.6,29.70,NW,322,10.0,22.0,70,0.07,,SKC,0.13,VWS V14.01,2013-04-19 21:44:00,
2013-04-19 16:49:00,34.4,25.6,29.70,NW,317,12.0,22.0,70,0.08,,SKC,0.14,VWS V14.01,2013-04-19 21:49:00,
2013-04-19 16:54:00,34.5,25.4,29.70,NNW,331,12.0,22.0,69,0.09,,SKC,0.15,VWS V14.01,2013-04-19 21:54:00,
2013-04-19 16:59:00,34.7,25.6,29.70,NW,317,12.0,22.0,69,0.09,,SKC,0.15,VWS V14.01,2013-04-19 21:59:00,
2013-04-19 17:00:00,34.6,25.5,29.71,NW,325,9.0,22.0,69,0.10,,SKC,0.16,VWS V14.01,2013-04-19 22:00:00,
2013-04-19 17:04:00,34.6,25.5,29.71,NW,324,11.0,22.0,69,0.10,,SKC,0.16,VWS V14.01,2013-04-19 22:04:00,
2013-04-19 17:09:00,34.8,26.0,29.71,NW,320,10.0,11.0,70,0.07,,SKC,0.16,VWS V14.01,2013-04-19 22:09:00,
2013-04-19 17:15:00,35.2,26.4,29.71,NW,320,13.0,13.0,70,0.07,,SKC,0.16,VWS V14.01,2013-04-19 22:15:00,
2013-04-19 17:20:00,35.2,25.7,29.72,NW,324,8.0,14.0,68,0.07,,SKC,0.16,VWS V14.01,2013-04-19 22:20:00,
2013-04-19 17:25:00,35.2,25.7,29.72,NNW,330,11.0,15.0,68,0.08,,SKC,0.17,VWS V14.01,2013-04-19 22:25:00,
2013-04-19 17:30:00,35.4,25.5,29.72,NNW,334,10.0,16.0,67,0.08,,SKC,0.17,VWS V14.01,2013-04-19 22:30:00,
2013-04-19 17:35:00,35.3,25.1,29.72,NW,319,12.0,21.0,66,0.08,,SKC,0.17,VWS V14.01,2013-04-19 22:35:00,
2013-04-19 17:40:00,34.9,24.3,29.72,NW,317,9.0,15.0,65,0.06,,SKC,0.18,VWS V14.01,2013-04-19 22:40:00,
2013-04-19 17:45:00,34.8,25.0,29.73,NW,321,5.0,15.0,67,0.06,,SKC,0.18,VWS V14.01,2013-04-19 22:45:00,
2013-04-19 17:50:00,34.8,25.3,29.73,NW,315,10.0,15.0,68,0.06,,SKC,0.18,VWS V14.01,2013-04-19 22:50:00,
2013-04-19 17:55:00,34.4,24.2,29.73,NNW,329,13.0,19.0,66,0.07,,SKC,0.19,VWS V14.01,2013-04-19 22:55:00,
2013-04-19 18:00:00,34.4,24.2,29.73,NW,319,9.0,19.0,66,0.07,,SKC,0.19,VWS V14.01,2013-04-19 23:00:00,
2013-04-19 18:05:00,34.4,24.6,29.74,NW,319,10.0,19.0,67,0.07,,SKC,0.19,VWS V14.01,2013-04-19 23:05:00,
2013-04-19 18:10:00,34.4,24.2,29.74,NW,319,7.0,11.0,66,0.03,,SKC,0.19,VWS V14.01,2013-04-19 23:10:00,
2013-04-19 18:15:00,34.2,24.0,29.74,NNW,342,8.0,18.0,66,0.03,,SKC,0.19,VWS V14.01,2013-04-19 23:15:00,
2013-04-19 18:20:00,34.2,23.3,29.74,NW,318,14.0,18.0,64,0.03,,SKC,0.19,VWS V14.01,2013-04-19 23:20:00,
2013-04-19 18:25:00,34.1,23.6,29.75,NW,323,8.0,18.0,65,0.03,,SKC,0.19,VWS V14.01,2013-04-19 23:25:00,
2013-04-19 18:30:00,34.0,24.2,29.75,NNW,328,5.0,18.0,67,0.03,,SKC,0.19,VWS V14.01,2013-04-19 23:30:00,
2013-04-19 18:35:00,34.1,24.0,29.75,NNW,331,9.0,18.0,66,0.03,,SKC,0.19,VWS V14.01,2013-04-19 23:35:00,
2013-04-19 18:40:00,34.4,23.5,29.75,NW,320,9.0,13.0,64,0.03,,SKC,0.20,VWS V14.01,2013-04-19 23:40:00,
2013-04-19 18:45:00,34.4,23.5,29.75,NW,323,6.0,13.0,64,0.03,,SKC,0.20,VWS V14.01,2013-04-19 23:45:00,
2013-04-19 18:50:00,34.4,23.5,29.76,NNW,333,7.0,13.0,64,0.03,,SKC,0.20,VWS V14.01,2013-04-19 23:50:00,
2013-04-19 18:55:00,34.3,23.0,29.76,NW,326,8.0,13.0,63,0.03,,SKC,0.20,VWS V14.01,2013-04-19 23:55:00,
2013-04-19 19:00:00,34.0,23.5,29.76,NW,325,2.0,13.0,65,0.03,,SKC,0.20,VWS V14.01,2013-04-20 00:00:00,
2013-04-19 19:05:00,33.8,22.9,29.76,NW,325,6.0,13.0,64,0.03,,SKC,0.20,VWS V14.01,2013-04-20 00:05:00,
2013-04-19 19:10:00,33.7,23.2,29.76,NW,325,6.0,7.0,65,0.01,,SKC,0.20,VWS V14.01,2013-04-20 00:10:00,
2013-04-19 19:15:00,33.5,22.6,29.77,NW,325,0.0,7.0,64,0.01,,SKC,0.20,VWS V14.01,2013-04-20 00:15:00,
2013-04-19 19:20:00,33.4,23.3,29.77,NW,325,1.0,7.0,66,0.02,,SKC,0.21,VWS V14.01,2013-04-20 00:20:00,
2013-04-19 19:25:00,33.3,22.5,29.77,NW,325,4.0,7.0,64,0.02,,SKC,0.21,VWS V14.01,2013-04-20 00:25:00,
2013-04-19 19:30:00,33.3,22.5,29.77,NNW,327,8.0,8.0,64,0.02,,SKC,0.21,VWS V14.01,2013-04-20 00:30:00,
2013-04-19 19:35:00,33.4,22.9,29.78,NW,321,6.0,12.0,65,0.02,,SKC,0.21,VWS V14.01,2013-04-20 00:35:00,
2013-04-19 19:40:00,33.5,22.6,29.78,NW,310,5.0,13.0,64,0.02,,SKC,0.21,VWS V14.01,2013-04-20 00:40:00,
2013-04-19 19:45:00,33.5,23.0,29.78,NW,311,6.0,13.0,65,0.02,,SKC,0.21,VWS V14.01,2013-04-20 00:45:00,
2013-04-19 19:50:00,33.4,22.5,29.79,West,281,7.0,16.0,64,0.02,,SKC,0.21,VWS V14.01,2013-04-20 00:50:00,
2013-04-19 19:55:00,33.3,22.1,29.79,NW,310,7.0,16.0,63,0.02,,SKC,0.21,VWS V14.01,2013-04-20 00:55:00,
2013-04-19 20:00:00,33.1,22.3,29.80,NW,314,5.0,16.0,64,0.02,,SKC,0.21,VWS V14.01,2013-04-20 01:00:00,
2013-04-19 20:06:00,32.9,22.4,29.80,NW,316,7.0,16.0,65,0.02,,SKC,0.21,VWS V14.01,2013-04-20 01:06:00,
2013-04-19 20:11:00,32.8,22.7,29.80,WNW,291,5.0,8.0,66,0.01,,SKC,0.21,VWS V14.01,2013-04-20 01:11:00,
2013-04-19 20:16:00,32.5,22.1,29.80,NW,306,5.0,8.0,65,0.01,,SKC,0.21,VWS V14.01,2013-04-20 01:16:00,
2013-04-19 20:21:00,32.3,21.9,29.80,NW,306,6.0,11.0,65,0.01,,SKC,0.21,VWS V14.01,2013-04-20 01:21:00,
2013-04-19 20:26:00,32.1,21.7,29.81,NW,319,6.0,11.0,65,0.01,,SKC,0.21,VWS V14.01,2013-04-20 01:26:00,
2013-04-19 20:30:00,31.7,20.9,29.81,NW,319,6.0,11.0,64,0.01,,SKC,0.21,VWS V14.01,2013-04-20 01:30:00,
2013-04-19 20:31:00,31.9,21.1,29.81,NW,307,5.0,11.0,64,0.01,,SKC,0.21,VWS V14.01,2013-04-20 01:31:00,
2013-04-19 20:36:00,31.7,20.9,29.81,NW,319,6.0,11.0,64,0.01,,SKC,0.21,VWS V14.01,2013-04-20 01:36:00,
2013-04-19 20:41:00,31.5,20.7,29.81,NW,323,6.0,11.0,64,0.00,,SKC,0.21,VWS V14.01,2013-04-20 01:41:00,
2013-04-19 20:46:00,31.5,21.1,29.82,NW,311,5.0,11.0,65,0.00,,SKC,0.21,VWS V14.01,2013-04-20 01:46:00,
2013-04-19 20:51:00,31.5,20.7,29.82,NW,319,6.0,11.0,64,0.00,,SKC,0.21,VWS V14.01,2013-04-20 01:51:00,
2013-04-19 20:56:00,31.4,20.6,29.82,NW,307,5.0,11.0,64,0.00,,SKC,0.21,VWS V14.01,2013-04-20 01:56:00,
2013-04-19 21:00:00,30.9,19.8,29.83,NW,309,7.0,11.0,63,0.00,,SKC,0.21,VWS V14.01,2013-04-20 02:00:00,
2013-04-19 21:01:00,31.2,20.5,29.83,NW,313,4.0,11.0,64,0.00,,SKC,0.21,VWS V14.01,2013-04-20 02:01:00,
2013-04-19 21:06:00,30.9,19.8,29.83,NW,309,6.0,11.0,63,0.00,,SKC,0.21,VWS V14.01,2013-04-20 02:06:00,
2013-04-19 21:11:00,30.7,20.0,29.83,NW,309,5.0,7.0,64,0.00,,SKC,0.21,VWS V14.01,2013-04-20 02:11:00,
2013-04-19 21:16:00,30.4,19.7,29.83,NW,310,2.0,7.0,64,0.00,,SKC,0.21,VWS V14.01,2013-04-20 02:16:00,
2013-04-19 21:21:00,30.2,19.5,29.84,NW,311,5.0,9.0,64,0.00,,SKC,0.21,VWS V14.01,2013-04-20 02:21:00,
2013-04-19 21:26:00,30.1,19.4,29.84,NW,311,4.0,9.0,64,0.00,,SKC,0.21,VWS V14.01,2013-04-20 02:26:00,
2013-04-19 21:30:00,29.6,18.9,29.85,NW,311,5.0,9.0,64,0.00,,SKC,0.21,VWS V14.01,2013-04-20 02:30:00,
2013-04-19 21:31:00,29.8,19.1,29.85,NW,311,4.0,9.0,64,0.00,,SKC,0.21,VWS V14.01,2013-04-20 02:31:00,
2013-04-19 21:36:00,29.6,18.9,29.85,NW,311,3.0,5.0,64,0.00,,SKC,0.21,VWS V14.01,2013-04-20 02:36:00,
2013-04-19 21:41:00,29.4,18.7,29.85,NW,311,1.0,6.0,64,0.00,,SKC,0.21,VWS V14.01,2013-04-20 02:41:00,
2013-04-19 21:46:00,29.3,18.6,29.86,NW,311,1.0,8.0,64,0.00,,SKC,0.21,VWS V14.01,2013-04-20 02:46:00,
2013-04-19 21:51:00,29.1,18.8,29.86,NW,311,3.0,8.0,65,0.00,,SKC,0.21,VWS V14.01,2013-04-20 02:51:00,
2013-04-19 21:56:00,28.9,18.3,29.86,NW,311,5.0,8.0,64,0.00,,SKC,0.21,VWS V14.01,2013-04-20 02:56:00,
2013-04-19 22:00:00,28.7,18.1,29.87,NW,311,3.0,9.0,64,0.00,,SKC,0.21,VWS V14.01,2013-04-20 03:00:00,
2013-04-19 22:01:00,28.8,18.2,29.86,NW,311,3.0,8.0,64,0.00,,SKC,0.21,VWS V14.01,2013-04-20 03:01:00,
2013-04-19 22:06:00,28.7,18.1,29.87,NW,311,5.0,5.0,64,0.00,,SKC,0.21,VWS V14.01,2013-04-20 03:06:00,
2013-04-19 22:11:00,28.5,17.9,29.87,NW,311,5.0,7.0,64,0.00,,SKC,0.21,VWS V14.01,2013-04-20 03:11:00,
2013-04-19 22:16:00,28.5,17.9,29.87,NW,311,4.0,7.0,64,0.00,,SKC,0.21,VWS V14.01,2013-04-20 03:16:00,
2013-04-19 22:21:00,28.3,17.7,29.88,NW,311,5.0,7.0,64,0.00,,SKC,0.21,VWS V14.01,2013-04-20 03:21:00,
2013-04-19 22:26:00,28.1,17.5,29.88,NW,311,3.0,7.0,64,0.00,,SKC,0.21,VWS V14.01,2013-04-20 03:26:00,
2013-04-19 22:30:00,27.8,17.2,29.88,NW,311,5.0,7.0,64,0.00,,SKC,0.21,VWS V14.01,2013-04-20 03:30:00,
2013-04-19 22:31:00,27.9,17.3,29.88,NW,311,2.0,7.0,64,0.00,,SKC,0.21,VWS V14.01,2013-04-20 03:31:00,
2013-04-19 22:36:00,27.8,16.9,29.88,NW,311,5.0,5.0,63,0.00,,SKC,0.21,VWS V14.01,2013-04-20 03:36:00,
2013-04-19 22:41:00,27.6,16.7,29.88,NW,311,4.0,6.0,63,0.00,,SKC,0.21,VWS V14.01,2013-04-20 03:41:00,
2013-04-19 22:46:00,27.4,16.5,29.89,NW,311,5.0,6.0,63,0.00,,SKC,0.21,VWS V14.01,2013-04-20 03:46:00,
2013-04-19 22:51:00,27.2,16.6,29.89,NW,311,4.0,8.0,64,0.00,,SKC,0.21,VWS V14.01,2013-04-20 03:51:00,
2013-04-19 22:56:00,27.0,16.1,29.89,NW,311,6.0,8.0,63,0.00,,SKC,0.21,VWS V14.01,2013-04-20 03:56:00,
2013-04-19 23:00:00,26.8,15.5,29.89,NW,311,3.0,8.0,62,0.00,,SKC,0.21,VWS V14.01,2013-04-20 04:00:00,
2013-04-19 23:01:00,26.9,16.0,29.89,NW,311,5.0,8.0,63,0.00,,SKC,0.21,VWS V14.01,2013-04-20 04:01:00,
2013-04-19 23:03:00,26.9,16.0,29.89,NW,311,2.0,8.0,63,0.00,,SKC,0.21,VWS V14.01,2013-04-20 04:03:00,
2013-04-19 23:04:00,26.8,15.9,29.89,NW,311,5.0,8.0,63,0.00,,SKC,0.21,VWS V14.01,2013-04-20 04:04:00,
2013-04-19 23:06:00,26.8,15.5,29.89,NW,311,1.0,8.0,62,0.00,,SKC,0.21,VWS V14.01,2013-04-20 04:06:00,
2013-04-19 23:08:00,26.8,15.9,29.89,NW,311,2.0,5.0,63,0.00,,SKC,0.21,VWS V14.01,2013-04-20 04:08:00,
2013-04-19 23:13:00,26.7,15.4,29.89,NW,311,4.0,6.0,62,0.00,,SKC,0.21,VWS V14.01,2013-04-20 04:13:00,
2013-04-19 23:18:00,26.6,15.4,29.89,NW,311,1.0,6.0,62,0.00,,SKC,0.21,VWS V14.01,2013-04-20 04:18:00,
2013-04-19 23:23:00,26.4,15.2,29.89,NW,311,1.0,6.0,62,0.00,,SKC,0.21,VWS V14.01,2013-04-20 04:23:00,
2013-04-19 23:28:00,26.2,15.0,29.90,NW,311,0.0,6.0,62,0.00,,SKC,0.21,VWS V14.01,2013-04-20 04:28:00,
2013-04-19 23:30:00,26.0,14.8,29.90,NW,311,4.0,6.0,62,0.00,,SKC,0.21,VWS V14.01,2013-04-20 04:30:00,
2013-04-19 23:33:00,26.1,14.9,29.90,NW,311,0.0,6.0,62,0.00,,SKC,0.21,VWS V14.01,2013-04-20 04:33:00,
2013-04-19 23:38:00,25.9,14.7,29.90,NW,311,4.0,4.0,62,0.00,,SKC,0.21,VWS V14.01,2013-04-20 04:38:00,
2013-04-19 23:43:00,25.8,14.6,29.90,NW,311,1.0,5.0,62,0.00,,SKC,0.21,VWS V14.01,2013-04-20 04:43:00,
2013-04-19 23:48:00,25.7,14.5,29.90,NW,311,0.0,5.0,62,0.00,,SKC,0.21,VWS V14.01,2013-04-20 04:48:00,
2013-04-19 23:53:00,25.5,14.3,29.90,NW,311,0.0,5.0,62,0.00,,SKC,0.21,VWS V14.01,2013-04-20 04:53:00,
2013-04-19 23:58:00,25.4,14.2,29.91,NW,311,0.0,5.0,62,0.00,,SKC,0.21,VWS V14.01,2013-04-20 04:58:00,